Time,TemperatureF,DewpointF,PressureIn,WindDirection,WindDirectionDegrees,WindSpeedMPH,WindSpeedGustMPH,Humidity,HourlyPrecipIn,Conditions,Clouds,dailyrainin,SolarRadiationWatts/m^2,SoftwareType,DateUTC
2013-08-17 00:13:00,77.0,62.0,-100.00,ENE,57,8.0,10.0,60,0.00,,,0.01,0.000000,,2013-08-17 05:13:00,
2013-08-17 00:22:00,77.0,62.0,-100.00,ENE,57,8.0,10.0,60,0.00,,,0.01,0.000000,,2013-08-17 05:22:00,
2013-08-17 00:32:00,77.0,62.0,-100.00,ENE,57,8.0,10.0,60,0.00,,,0.01,0.000000,,2013-08-17 05:32:00,
2013-08-17 01:12:00,74.0,62.0,-100.00,ENE,59,7.0,11.0,67,0.00,,,0.01,0.000000,,2013-08-17 06:12:00,
2013-08-17 01:21:00,74.0,62.0,-100.00,ENE,59,7.0,11.0,67,0.00,,,0.01,0.000000,,2013-08-17 06:21:00,
2013-08-17 01:31:00,74.0,62.0,-100.00,ENE,59,7.0,11.0,67,0.00,,,0.01,0.000000,,2013-08-17 06:31:00,
2013-08-17 02:11:00,73.0,64.0,-100.00,ENE,74,4.0,7.0,73,0.00,,,0.00,0.000000,,2013-08-17 07:11:00,
2013-08-17 02:22:00,73.0,64.0,-100.00,ENE,74,4.0,7.0,73,0.00,,,0.00,0.000000,,2013-08-17 07:22:00,
2013-08-17 02:32:00,73.0,64.0,-100.00,ENE,74,4.0,7.0,73,0.00,,,0.00,0.000000,,2013-08-17 07:32:00,
2013-08-17 03:11:00,73.0,64.0,-100.00,NE,37,3.0,8.0,74,0.00,,,0.00,0.000000,,2013-08-17 08:11:00,
2013-08-17 03:21:00,73.0,64.0,-100.00,NE,37,3.0,8.0,74,0.00,,,0.00,0.000000,,2013-08-17 08:21:00,
2013-08-17 03:32:00,73.0,64.0,-100.00,NE,37,3.0,8.0,74,0.00,,,0.00,0.000000,,2013-08-17 08:32:00,
2013-08-17 04:11:00,71.0,65.0,-100.00,NNE,32,6.0,8.0,81,0.00,,,0.00,0.000000,,2013-08-17 09:11:00,
2013-08-17 04:21:00,71.0,65.0,-100.00,NNE,32,6.0,8.0,81,0.00,,,0.00,0.000000,,2013-08-17 09:21:00,
2013-08-17 04:33:00,71.0,65.0,-100.00,NNE,32,6.0,8.0,81,0.00,,,0.00,0.000000,,2013-08-17 09:33:00,
2013-08-17 05:12:00,70.0,65.0,-100.00,NNE,14,6.0,8.0,85,0.00,,,-99.99,0.000000,,2013-08-17 10:12:00,
2013-08-17 05:23:00,70.0,65.0,-100.00,NNE,14,6.0,8.0,85,0.00,,,-99.99,0.000000,,2013-08-17 10:23:00,
2013-08-17 05:32:00,70.0,65.0,-100.00,NNE,14,6.0,8.0,85,0.00,,,-99.99,0.000000,,2013-08-17 10:32:00,
2013-08-17 06:11:00,69.0,66.0,-100.00,NE,35,6.0,10.0,89,0.00,,,0.00,0.000000,,2013-08-17 11:11:00,
2013-08-17 06:22:00,69.0,66.0,-100.00,NE,35,6.0,10.0,89,0.00,,,0.00,0.000000,,2013-08-17 11:22:00,
2013-08-17 06:32:00,69.0,66.0,-100.00,NE,35,6.0,10.0,89,0.00,,,0.00,0.000000,,2013-08-17 11:32:00,
2013-08-17 07:11:00,68.0,66.0,-100.00,NNE,27,7.0,11.0,92,0.00,,,0.00,0.000000,,2013-08-17 12:11:00,
2013-08-17 07:21:00,68.0,66.0,-100.00,NNE,27,7.0,11.0,92,0.00,,,0.00,0.000000,,2013-08-17 12:21:00,
2013-08-17 07:32:00,68.0,66.0,-100.00,NNE,27,7.0,11.0,92,0.00,,,0.00,0.000000,,2013-08-17 12:32:00,
2013-08-17 08:11:00,68.0,65.0,-100.00,NNE,33,7.0,10.0,89,0.00,,,0.00,13.000000,,2013-08-17 13:11:00,
2013-08-17 08:21:00,68.0,65.0,-100.00,NNE,33,7.0,10.0,89,0.00,,,0.00,13.000000,,2013-08-17 13:21:00,
2013-08-17 08:32:00,68.0,65.0,-100.00,NNE,33,7.0,10.0,89,0.00,,,0.00,13.000000,,2013-08-17 13:32:00,
2013-08-17 09:11:00,71.0,64.0,-100.00,NE,51,7.0,11.0,78,0.00,,,0.00,148.000000,,2013-08-17 14:11:00,
2013-08-17 09:21:00,71.0,64.0,-100.00,NE,51,7.0,11.0,78,0.00,,,0.00,148.000000,,2013-08-17 14:21:00,
2013-08-17 09:32:00,71.0,64.0,-100.00,NE,51,7.0,11.0,78,0.00,,,0.00,148.000000,,2013-08-17 14:32:00,
2013-08-17 10:11:00,75.0,65.0,-100.00,NE,43,9.0,13.0,70,0.00,,,0.00,346.000000,,2013-08-17 15:11:00,
2013-08-17 10:22:00,75.0,65.0,-100.00,NE,43,9.0,13.0,70,0.00,,,0.00,346.000000,,2013-08-17 15:22:00,
2013-08-17 10:33:00,75.0,65.0,-100.00,NE,43,9.0,13.0,70,0.00,,,0.00,346.000000,,2013-08-17 15:33:00,
2013-08-17 11:12:00,79.0,66.0,-100.00,NE,51,7.0,11.0,64,0.00,,,0.00,541.000000,,2013-08-17 16:12:00,
2013-08-17 11:23:00,79.0,66.0,-100.00,NE,51,7.0,11.0,64,0.00,,,0.00,541.000000,,2013-08-17 16:23:00,
2013-08-17 11:33:00,79.0,66.0,-100.00,NE,51,7.0,11.0,64,0.00,,,0.00,541.000000,,2013-08-17 16:33:00,
2013-08-17 12:12:00,83.0,66.0,-100.00,NE,37,6.0,11.0,57,0.00,,,-99.99,708.000000,,2013-08-17 17:12:00,
2013-08-17 12:23:00,83.0,66.0,-100.00,NE,37,6.0,11.0,57,0.00,,,-99.99,708.000000,,2013-08-17 17:23:00,
2013-08-17 12:32:00,83.0,66.0,-100.00,NE,37,6.0,11.0,57,0.00,,,-99.99,708.000000,,2013-08-17 17:32:00,
2013-08-17 13:12:00,85.0,65.0,-100.00,NNE,24,8.0,14.0,51,0.00,,,0.00,825.000000,,2013-08-17 18:12:00,
2013-08-17 13:21:00,85.0,65.0,-100.00,NNE,24,8.0,14.0,51,0.00,,,0.00,825.000000,,2013-08-17 18:21:00,
2013-08-17 13:32:00,85.0,65.0,-100.00,NNE,24,8.0,14.0,51,0.00,,,0.00,825.000000,,2013-08-17 18:32:00,
2013-08-17 14:11:00,87.0,62.0,-100.00,NE,39,9.0,15.0,44,0.00,,,0.00,882.000000,,2013-08-17 19:11:00,
2013-08-17 14:21:00,87.0,62.0,-100.00,NE,39,9.0,15.0,44,0.00,,,0.00,882.000000,,2013-08-17 19:21:00,
2013-08-17 14:31:00,87.0,62.0,-100.00,NE,39,9.0,15.0,44,0.00,,,0.00,882.000000,,2013-08-17 19:31:00,
2013-08-17 15:11:00,89.0,61.0,-100.00,NE,42,8.0,18.0,40,0.00,,,0.00,883.000000,,2013-08-17 20:11:00,
2013-08-17 15:21:00,89.0,61.0,-100.00,NE,42,8.0,18.0,40,0.00,,,0.00,883.000000,,2013-08-17 20:21:00,
2013-08-17 15:32:00,89.0,61.0,-100.00,NE,42,8.0,18.0,40,0.00,,,0.00,883.000000,,2013-08-17 20:32:00,
2013-08-17 16:11:00,90.0,60.0,-100.00,ENE,57,11.0,18.0,37,0.00,,,0.00,817.000000,,2013-08-17 21:11:00,
2013-08-17 16:21:00,90.0,60.0,-100.00,ENE,57,11.0,18.0,37,0.00,,,0.00,817.000000,,2013-08-17 21:21:00,
2013-08-17 16:33:00,90.0,60.0,-100.00,ENE,57,11.0,18.0,37,0.00,,,0.00,817.000000,,2013-08-17 21:33:00,
2013-08-17 17:13:00,89.0,59.0,-100.00,ENE,60,11.0,21.0,37,0.00,,,0.00,705.000000,,2013-08-17 22:13:00,
2013-08-17 17:23:00,89.0,59.0,-100.00,ENE,60,11.0,21.0,37,0.00,,,0.00,705.000000,,2013-08-17 22:23:00,
2013-08-17 17:33:00,89.0,59.0,-100.00,ENE,60,11.0,21.0,37,0.00,,,0.00,705.000000,,2013-08-17 22:33:00,
2013-08-17 18:11:00,90.0,59.0,-100.00,ENE,61,10.0,20.0,35,0.00,,,0.00,547.000000,,2013-08-17 23:11:00,
2013-08-17 18:22:00,90.0,59.0,-100.00,ENE,61,10.0,20.0,35,0.00,,,0.00,547.000000,,2013-08-17 23:22:00,
2013-08-17 18:32:00,90.0,59.0,-100.00,ENE,61,10.0,20.0,35,0.00,,,0.00,547.000000,,2013-08-17 23:32:00,
2013-08-17 19:12:00,88.0,57.0,-100.00,ENE,58,10.0,19.0,35,0.00,,,0.00,351.000000,,2013-08-18 00:12:00,
2013-08-17 19:21:00,88.0,57.0,-100.00,ENE,58,10.0,19.0,35,0.00,,,0.00,351.000000,,2013-08-18 00:21:00,
2013-08-17 19:32:00,88.0,57.0,-100.00,ENE,58,10.0,19.0,35,0.00,,,0.00,351.000000,,2013-08-18 00:32:00,
2013-08-17 20:11:00,86.0,56.0,-100.00,ENE,70,8.0,17.0,36,0.00,,,0.00,158.000000,,2013-08-18 01:11:00,
2013-08-17 20:21:00,86.0,56.0,-100.00,ENE,70,8.0,17.0,36,0.00,,,0.00,158.000000,,2013-08-18 01:21:00,
2013-08-17 20:31:00,86.0,56.0,-100.00,ENE,70,8.0,17.0,36,0.00,,,0.00,158.000000,,2013-08-18 01:31:00,
2013-08-17 21:11:00,81.0,56.0,-100.00,ENE,77,8.0,11.0,42,0.00,,,0.00,16.000000,,2013-08-18 02:11:00,
2013-08-17 21:21:00,81.0,56.0,-100.00,ENE,77,8.0,11.0,42,0.00,,,0.00,16.000000,,2013-08-18 02:21:00,
2013-08-17 21:32:00,81.0,56.0,-100.00,ENE,77,8.0,11.0,42,0.00,,,0.00,16.000000,,2013-08-18 02:32:00,
2013-08-17 22:11:00,79.0,56.0,-100.00,ENE,76,7.0,9.0,45,0.00,,,0.00,0.000000,,2013-08-18 03:11:00,
2013-08-17 22:21:00,79.0,56.0,-100.00,ENE,76,7.0,9.0,45,0.00,,,0.00,0.000000,,2013-08-18 03:21:00,
2013-08-17 22:33:00,79.0,56.0,-100.00,ENE,76,7.0,9.0,45,0.00,,,0.00,0.000000,,2013-08-18 03:33:00,
2013-08-17 23:02:00,-999.0,-99.9,-100.00,ENE,73,8.0,10.0,-999,0.00,,,0.00,0.000000,,2013-08-18 04:02:00,
2013-08-17 23:12:00,78.0,56.0,-100.00,ENE,73,8.0,10.0,46,0.00,,,0.00,0.000000,,2013-08-18 04:12:00,
2013-08-17 23:23:00,78.0,56.0,-100.00,ENE,73,8.0,10.0,46,0.00,,,0.00,0.000000,,2013-08-18 04:23:00,
2013-08-17 23:32:00,78.0,56.0,-100.00,ENE,73,8.0,10.0,46,0.00,,,0.00,0.000000,,2013-08-18 04:32:00,